Regional Weather Roundup
Issued by NWS

Home | Current Version | Previous Version | Text Only | Print | Product List | Glossary Off
Versions: 1 2 3 4 5 6 7 8 9 10 11 12 13 14 15 16 17 18 19 20 21 22 23 24 25 26 27 28 29 30 31 32 33 34 35 36 37 38 39 40 41 42 43 44 45 46 47 48 49 50

000
ASUS43 KIND 302109
RWRIN

WEATHER ROUNDUP FOR INDIANA
NATIONAL WEATHER SERVICE INDIANAPOLIS IN
500 PM EDT WED JUL 30 2014

NOTE: "FAIR" INDICATES FEW OR NO CLOUDS BELOW 12,000 FEET WITH NO
SIGNIFICANT WEATHER AND/OR OBSTRUCTIONS TO VISIBILITY.

* - STATION DOES NOT REPORT WEATHER SUCH AS PRECIPITATION OR FOG.

+ - STATION NOT QUALITY CONTROLLED BY THE NATIONAL WEATHER SERVICE.
    USE DATA WITH CAUTION...ESPECIALLY DEWPOINT AND RELATIVE
    HUMIDITY OBSERVATIONS.

INZ001>003-010>013-019-020-302200-
NORTHWEST INDIANA

CITY           SKY/WX    TMP DP  RH WIND       PRES   REMARKS
GARY /AIRPORT/ MOSUNNY   72  63  73 NE8       30.04R
KNOX *+        CLOUDY    76  57  50 CALM      30.00F
LA PORTE +     SUNNY     75  54  47 N9        30.02F
MICHIGAN CITY+ SUNNY     70  55  60 N9        30.03F
MONTICELLO +   MOSUNNY   76  61  59 W7        30.01F
RENSSELAER +   SUNNY     77  61  57 W9        30.02F
VALPARAISO     MOSUNNY   78  58  49 VRB3      30.02S

$$

LMZ046-743>745-302200-
SOUTHERN LAKE MICHIGAN

STATION/POSITION TIME  TEMP WIND        PRES
                       AIR  DIR/SP/G
                 (UTC) (F)  (DEG/KT/KT) (MB)
BURNS HARBOR     2100   67   40/ 13/ 14 1017.3S
MICHIGAN CITY    2100   64   20/ 12/ 14   N/A

$$

INZ004-005-014>016-021>024-302200-
NORTH CENTRAL INDIANA

CITY           SKY/WX    TMP DP  RH WIND       PRES   REMARKS
GOSHEN         SUNNY     77  56  48 W15G23    30.01F
LOGANSPORT +   MOSUNNY   73  59  60 W7        30.02F
PERU/GRISSOM   SUNNY     79  61  54 W15       30.01F
ROCHESTER +    MOSUNNY   81  55  41 W7        30.01F
SOUTH BEND     SUNNY     76  55  48 NW12      30.03S
WARSAW +       PTSUNNY   75  57  53 NW7       30.01F

$$

INZ006>009-017-018-025>027-302200-
NORTHEAST INDIANA

CITY           SKY/WX    TMP DP  RH WIND       PRES   REMARKS
ANGOLA *+      PTSUNNY   79  55  44 W10       29.99F
AUBURN +       MOSUNNY   77  50  38 W12G17    30.01S
FORT WAYNE     MOSUNNY   77  56  48 W10       30.00F
HUNTINGTON +   PTSUNNY   73  57  56 W10G20    30.01S

$$

INZ028-029-035-036-043>045-051>053-302200-
WEST CENTRAL INDIANA

CITY           SKY/WX    TMP DP  RH WIND       PRES   REMARKS
GREENCASTLE +  PTSUNNY   75  59  57 W7        30.05S
LAFAYETTE      SUNNY     79  57  46 W12G20    30.02S
TERRE HAUTE    PTSUNNY   76  59  55 W9        30.04F

$$

INZ030>032-037>040-046>048-054>057-064-065-302200-
CENTRAL INDIANA

CITY           SKY/WX    TMP DP  RH WIND       PRES   REMARKS
CP ATTERBURY + MOSUNNY   79  55  44 W8G17     30.05S
COLUMBUS       PTSUNNY   75  61  60 W13       30.04F
GREENWOOD *+   MOSUNNY   75  66  73 W8        30.05
INDIANAPOLIS   PTSUNNY   76  60  57 SW15      30.03F
-EAGLE CREEK   LGT RAIN  73  59  61 NW7G24    30.03S
KOKOMO *+      SUNNY     79  61  53 NW15      30.01F
MARION +       MOSUNNY   76  57  52 W8        30.02F
MT COMFORT *+  PTSUNNY   73  66  78 S5        30.04S
SHELBYVILLE    MOSUNNY   72  63  73 SW16      30.05S THUNDER
ZIONSVILLE +   MOSUNNY   79  57  47 W7        30.04S

$$

INZ033-034-041-042-049-050-058-059-302200-
EAST CENTRAL INDIANA

CITY           SKY/WX    TMP DP  RH WIND       PRES   REMARKS
MUNCIE         MOSUNNY   77  57  50 NW13      30.02F

$$

INZ060-061-067>069-081>083-085>088-302200-
SOUTHWEST INDIANA

CITY           SKY/WX    TMP DP  RH WIND       PRES   REMARKS
EVANSVILLE     MOSUNNY   83  53  35 W8        30.06F
WASHINGTON +   PTSUNNY   79  62  55 W8        30.05S

$$

INZ062-063-066-070>080-084-089>092-302200-
SOUTH CENTRAL AND SOUTHEAST INDIANA

CITY           SKY/WX    TMP DP  RH WIND       PRES   REMARKS
BEDFORD +      SUNNY     79  52  38 SW9G16    30.05
BLOOMINGTON    CLOUDY    73  60  63 NW5       30.06S
NORTH VERNON + CLOUDY    79  59  50 SW9       30.06S

$$




USA.gov is the U.S. government's official web portal to all federal, state and local government web resources and services.